Date String (YYYY-MM-DD hh:mm:ss) UTC,Instrument flags,Ambient pressure (hPa),Sample flow (lpm),Bypass flow (lpm),Sample temperature (°C),Ambient temperature (°C),ASC tube jacket temperature (°C),LED temperature (°C),Box temperature (°C),Sample RH (%),Span deviation,Mass concentration (μg/m³),Mass concentration (μg/m³),Mass concentration (μg/m³)
DateTimeUTC,F1_M11,P_M11,Q1_M11,Q2_M11,T1_M11,T2_M11,T3_M11,T4_M11,T5_M11,U1_M11,ZSPAN_M11,X2_M11,X0_M11,X1_M11
2021-12-25 09:00:00,,0813.1,5.00,0.00,22.4,21.7,00.0,31.5,24.1,16.7,0000.0,0000.39,0000.98,0000.22
2021-12-25 09:01:00,,0813.1,5.00,0.00,22.4,21.7,00.0,31.5,24.2,16.5,0000.0,0000.38,0000.90,0000.22
2021-12-25 09:02:00,,0813.2,5.01,0.00,22.4,21.7,00.0,31.4,24.2,16.5,0000.0,0000.38,0000.84,0000.22
2021-12-25 09:03:00,,0813.2,5.00,0.00,22.4,21.7,00.0,31.4,24.2,16.4,0000.0,0000.36,0000.67,0000.22
2021-12-25 09:04:00,,0813.2,5.00,0.00,22.4,21.7,00.0,31.4,24.1,16.4,0000.0,0000.36,0000.67,0000.22
2021-12-25 09:05:00,,0813.2,5.00,0.00,22.4,21.6,00.0,31.4,24.1,16.5,0000.0,0000.35,0000.65,0000.21
2021-12-25 09:06:00,,0813.3,5.00,0.00,22.4,21.6,00.0,31.4,24.1,16.7,0000.0,0000.36,0000.77,0000.21
2021-12-25 09:07:00,,0813.3,5.00,0.00,22.4,21.6,00.0,31.4,24.1,16.7,0000.0,0000.36,0000.72,0000.21
2021-12-25 09:08:00,,0813.3,5.00,0.00,22.3,21.6,00.0,31.4,24.1,16.7,0000.0,0000.32,0000.63,0000.21
2021-12-25 09:09:00,,0813.4,5.01,0.00,22.3,21.6,00.0,31.4,24.1,16.8,0000.0,0000.31,0000.60,0000.21
2021-12-25 09:10:00,,0813.4,4.99,0.00,22.3,21.6,00.0,31.4,24.1,16.6,0000.0,0000.31,0000.62,0000.21
2021-12-25 09:11:00,,0813.4,4.99,0.00,22.3,21.6,00.0,31.4,24.1,16.6,0000.0,0000.32,0000.66,0000.21
2021-12-25 09:12:00,,0813.3,5.00,0.00,22.4,21.6,00.0,31.4,24.1,16.6,0000.0,0000.31,0000.64,0000.21
2021-12-25 09:13:00,,0813.2,5.01,0.00,22.4,21.6,00.0,31.4,24.1,16.4,0000.0,0000.30,0000.63,0000.21
2021-12-25 09:14:00,,0813.2,5.00,0.00,22.4,21.7,00.0,31.4,24.1,16.3,0000.0,0000.31,0000.66,0000.21
2021-12-25 09:15:00,,0813.2,5.00,0.00,22.4,21.7,00.0,31.4,24.2,16.0,0000.0,0000.31,0000.66,0000.21
2021-12-25 09:16:00,,0813.2,5.00,0.00,22.4,21.7,00.0,31.4,24.1,16.2,0000.0,0000.32,0001.53,0000.21
2021-12-25 09:17:00,,0813.3,4.99,0.00,22.4,21.6,00.0,31.4,24.1,16.4,0000.0,0000.32,0001.62,0000.21
2021-12-25 09:18:00,,0813.4,5.00,0.00,22.4,21.7,00.0,31.4,24.1,16.7,0000.0,0000.31,0001.60,0000.21
2021-12-25 09:19:00,,0813.4,5.00,0.00,22.4,21.6,00.0,31.4,24.1,16.7,0000.0,0000.32,0001.62,0000.21
2021-12-25 09:20:00,,0813.4,5.01,0.00,22.4,21.7,00.0,31.4,24.1,17.0,0000.0,0000.33,0001.94,0000.21
2021-12-25 09:21:00,,0813.4,4.99,0.00,22.4,21.7,00.0,31.4,24.1,16.6,0000.0,0000.34,0002.01,0000.20
2021-12-25 09:22:00,,0813.4,5.01,0.00,22.4,21.7,00.0,31.4,24.1,17.0,0000.0,0000.32,0001.94,0000.20
2021-12-25 09:23:00,,0813.3,5.01,0.00,22.4,21.7,00.0,31.4,24.1,16.8,0000.0,0000.35,0002.00,0000.20
2021-12-25 09:24:00,,0813.4,5.00,0.00,22.4,21.7,00.0,31.4,24.2,16.5,0000.0,0000.39,0002.11,0000.20
2021-12-25 09:25:00,,0813.4,4.99,0.00,22.4,21.7,00.0,31.4,24.2,16.4,0000.0,0000.40,0003.28,0000.21
2021-12-25 09:26:00,,0813.5,5.00,0.00,22.4,21.7,00.0,31.4,24.2,16.4,0000.0,0000.40,0003.34,0000.21
2021-12-25 09:27:00,,0813.5,5.02,0.00,22.4,21.7,00.0,31.4,24.1,16.5,0000.0,0000.40,0002.43,0000.22
2021-12-25 09:28:00,,0813.5,5.00,0.00,22.4,21.7,00.0,31.4,24.1,16.6,0000.0,0000.41,0002.38,0000.22
2021-12-25 09:29:00,,0813.5,4.98,0.00,22.3,21.6,00.0,31.4,24.1,16.7,0000.0,0000.40,0002.37,0000.21
2021-12-25 09:30:00,,0813.5,5.01,0.00,22.3,21.6,00.0,31.4,24.1,16.6,0000.0,0000.39,0002.36,0000.21
2021-12-25 09:31:00,,0813.5,5.00,0.00,22.3,21.6,00.0,31.4,24.1,16.6,0000.0,0000.36,0001.99,0000.21
2021-12-25 09:32:00,,0813.5,5.00,0.00,22.3,21.6,00.0,31.4,24.1,16.6,0000.0,0000.34,0001.87,0000.21
2021-12-25 09:33:00,,0813.5,5.00,0.00,22.3,21.6,00.0,31.4,24.1,16.4,0000.0,0000.33,0001.86,0000.21
2021-12-25 09:34:00,,0813.5,5.00,0.00,22.3,21.5,00.0,31.4,24.0,16.5,0000.0,0000.31,0001.82,0000.20
2021-12-25 09:35:00,,0813.8,5.02,0.00,22.3,21.5,00.0,31.3,24.0,16.5,0000.0,0000.27,0002.38,0000.19
2021-12-25 09:36:00,,0814.2,5.00,0.00,22.3,21.5,00.0,31.3,24.0,16.5,0000.0,0000.25,0001.56,0000.19
2021-12-25 09:37:00,,0814.2,5.00,0.00,22.3,21.5,00.0,31.3,24.0,16.4,0000.0,0000.24,0001.48,0000.19
2021-12-25 09:38:00,,0814.3,5.00,0.00,22.2,21.5,00.0,31.3,24.0,16.4,0000.0,0000.25,0001.48,0000.19
2021-12-25 09:39:00,,0814.0,4.99,0.00,22.2,21.5,00.0,31.3,23.9,16.5,0000.0,0000.25,0001.44,0000.19
2021-12-25 09:40:00,,0813.9,5.00,0.00,22.2,21.4,00.0,31.3,23.9,16.5,0000.0,0000.25,0001.46,0000.19
2021-12-25 09:41:00,,0813.8,4.99,0.00,22.2,21.4,00.0,31.3,23.8,16.5,0000.0,0000.27,0001.56,0000.18
2021-12-25 09:42:00,,0813.9,5.02,0.00,22.1,21.4,00.0,31.3,23.8,16.6,0000.0,0000.28,0002.31,0000.18
2021-12-25 09:43:00,,0813.9,5.00,0.00,22.1,21.4,00.0,31.2,23.8,16.6,0000.0,0000.28,0003.10,0000.17
2021-12-25 09:44:00,,0813.9,5.00,0.00,22.1,21.3,00.0,31.2,23.8,16.5,0000.0,0000.31,0003.21,0000.17
2021-12-25 09:45:00,,0813.9,4.98,0.00,22.1,21.4,00.0,31.2,23.8,16.5,0000.0,0000.34,0003.28,0000.18
2021-12-25 09:46:00,,0813.9,5.01,0.00,22.2,21.9,00.0,31.3,24.0,16.4,0000.0,0000.35,0002.75,0000.18
2021-12-25 09:47:00,,0813.9,4.99,0.00,22.3,22.6,00.0,31.3,24.2,16.2,0000.0,0000.36,0002.33,0000.18
2021-12-25 09:48:00,,0813.9,5.00,0.00,22.4,22.8,00.0,31.3,24.3,16.1,0000.0,0000.37,0002.37,0000.18
2021-12-25 09:49:00,,0813.8,5.00,0.00,22.4,22.7,00.0,31.3,24.3,16.1,0000.0,0000.36,0002.35,0000.18
2021-12-25 09:50:00,,0814.0,5.00,0.00,22.4,22.5,00.0,31.3,24.3,16.2,0000.0,0000.34,0002.71,0000.17
2021-12-25 09:51:00,,0814.0,4.98,0.00,22.4,22.4,00.0,31.3,24.3,16.0,0000.0,0000.33,0003.50,0000.17
2021-12-25 09:52:00,,0814.0,5.01,0.00,22.4,22.3,00.0,31.3,24.3,16.2,0000.0,0000.33,0003.42,0000.17
2021-12-25 09:53:00,,0814.0,5.00,0.00,22.4,22.2,00.0,31.4,24.3,16.7,0000.0,0000.31,0002.73,0000.17
2021-12-25 09:54:00,,0814.2,5.00,0.00,22.5,22.1,00.0,31.4,24.3,17.0,0000.0,0000.31,0001.89,0000.18
2021-12-25 09:55:00,,0814.1,5.01,0.00,22.4,22.0,00.0,31.4,24.2,16.5,0000.0,0000.30,0001.81,0000.18
2021-12-25 09:56:00,,0814.0,4.99,0.00,22.4,22.0,00.0,31.4,24.2,15.9,0000.0,0000.28,0001.86,0000.17
2021-12-25 09:57:00,,0814.0,5.00,0.00,22.4,21.9,00.0,31.4,24.1,15.7,0000.0,0000.27,0001.83,0000.17
2021-12-25 09:58:00,,0814.1,5.01,0.00,22.4,21.8,00.0,31.4,24.1,15.7,0000.0,0000.28,0001.80,0000.18
2021-12-25 09:59:00,,0814.0,5.00,0.00,22.4,21.7,00.0,31.4,24.0,15.7,0000.0,0000.28,0001.97,0000.18
